Météo par heure à Juigalpa

Ce jour, 17 Juin, Jeudi

Heure Température Précipitation Vent Pression Humidité
00:00 +27°C° 0 mm 2 m/s 751 mmHg 90%
01:00 +27°C° 0.3 mm 2 m/s 750 mmHg 90%
02:00 +27°C° 0.3 mm 2 m/s 750 mmHg 91%
03:00 +26°C° 0.3 mm 2 m/s 750 mmHg 92%
04:00 +26°C° 0 mm 2 m/s 750 mmHg 92%
05:00 +26°C° 0 mm 2 m/s 750 mmHg 92%
06:00 +26°C° 0 mm 2 m/s 750 mmHg 92%
07:00 +27°C° 0 mm 2 m/s 750 mmHg 86%
08:00 +29°C° 0 mm 3 m/s 751 mmHg 80%
09:00 +30°C° 0 mm 3 m/s 751 mmHg 74%
10:00 +30°C° 0.7 mm 3 m/s 751 mmHg 75%
11:00 +30°C° 0.7 mm 3 m/s 751 mmHg 77%
12:00 +30°C° 0.7 mm 3 m/s 750 mmHg 78%
13:00 +31°C° 0.7 mm 3 m/s 750 mmHg 72%
14:00 +33°C° 0.7 mm 3 m/s 749 mmHg 66%
15:00 +34°C° 0.7 mm 3 m/s 748 mmHg 60%
16:00 +33°C° 0.3 mm 3 m/s 749 mmHg 65%
17:00 +30°C° 0.3 mm 2 m/s 749 mmHg 71%
18:00 +29°C° 0.3 mm 2 m/s 749 mmHg 76%
19:00 +29°C° 0.2 mm 2 m/s 749 mmHg 79%
20:00 +28°C° 0.2 mm 2 m/s 750 mmHg 82%
21:00 +27°C° 0.2 mm 2 m/s 750 mmHg 85%
22:00 +27°C° 0.2 mm 2 m/s 751 mmHg 86%
23:00 +26°C° 0.2 mm 2 m/s 751 mmHg 88%

Demain, 18 Juin, Vendredi

Heure Température Précipitation Vent Pression Humidité
00:00 +26°C° 0.2 mm 2 m/s 751 mmHg 90%
01:00 +26°C° 0 mm 2 m/s 750 mmHg 91%
02:00 +26°C° 0 mm 2 m/s 750 mmHg 92%
03:00 +25°C° 0 mm 2 m/s 750 mmHg 92%
04:00 +26°C° 0 mm 2 m/s 750 mmHg 92%
05:00 +26°C° 0 mm 2 m/s 751 mmHg 91%
06:00 +26°C° 0 mm 2 m/s 751 mmHg 91%
07:00 +27°C° 0 mm 3 m/s 751 mmHg 85%
08:00 +29°C° 0 mm 4 m/s 751 mmHg 78%
09:00 +30°C° 0 mm 5 m/s 752 mmHg 72%
10:00 +32°C° 0.3 mm 5 m/s 751 mmHg 69%
11:00 +33°C° 0.3 mm 4 m/s 751 mmHg 67%
12:00 +34°C° 0.3 mm 4 m/s 750 mmHg 64%
13:00 +33°C° 1.1 mm 4 m/s 750 mmHg 66%
14:00 +33°C° 1.1 mm 5 m/s 750 mmHg 68%
15:00 +32°C° 1.1 mm 5 m/s 749 mmHg 70%
16:00 +30°C° 0.8 mm 4 m/s 750 mmHg 76%
17:00 +29°C° 0.8 mm 4 m/s 750 mmHg 81%
18:00 +28°C° 0.8 mm 3 m/s 750 mmHg 86%
19:00 +27°C° 0.5 mm 3 m/s 750 mmHg 88%
20:00 +27°C° 0.5 mm 3 m/s 751 mmHg 89%
21:00 +26°C° 0.5 mm 4 m/s 752 mmHg 91%
22:00 +26°C° 0.1 mm 3 m/s 751 mmHg 91%
23:00 +26°C° 0.1 mm 3 m/s 751 mmHg 91%

Après-demain, 19 Juin, Samedi

Heure Température Précipitation Vent Pression Humidité
00:00 +26°C° 0.1 mm 3 m/s 751 mmHg 91%
01:00 +26°C° 0 mm 3 m/s 751 mmHg 92%
02:00 +26°C° 0 mm 3 m/s 751 mmHg 92%
03:00 +26°C° 0 mm 3 m/s 750 mmHg 92%
04:00 +26°C° 0 mm 3 m/s 751 mmHg 91%
05:00 +26°C° 0 mm 3 m/s 751 mmHg 90%
06:00 +26°C° 0 mm 3 m/s 751 mmHg 89%
07:00 +27°C° 0 mm 4 m/s 752 mmHg 84%
08:00 +28°C° 0 mm 5 m/s 752 mmHg 79%
09:00 +30°C° 0 mm 5 m/s 752 mmHg 74%
10:00 +30°C° 0.1 mm 5 m/s 752 mmHg 72%
11:00 +32°C° 0.1 mm 5 m/s 751 mmHg 71%
12:00 +32°C° 0.1 mm 5 m/s 751 mmHg 69%
13:00 +30°C° 0.5 mm 5 m/s 751 mmHg 74%
14:00 +29°C° 0.5 mm 4 m/s 750 mmHg 79%
15:00 +28°C° 0.5 mm 4 m/s 750 mmHg 83%
16:00 +28°C° 0 mm 4 m/s 750 mmHg 84%
17:00 +27°C° 0 mm 3 m/s 751 mmHg 85%
18:00 +27°C° 0 mm 3 m/s 751 mmHg 86%
19:00 +27°C° 0 mm 3 m/s 751 mmHg 87%
20:00 +26°C° 0 mm 2 m/s 752 mmHg 88%
21:00 +26°C° 0 mm 2 m/s 752 mmHg 89%
22:00 +26°C° 0 mm 2 m/s 752 mmHg 89%
23:00 +26°C° 0 mm 2 m/s 752 mmHg 90%

20 Juin, Dimanche

Heure Température Précipitation Vent Pression Humidité
00:00 +26°C° 0 mm 2 m/s 752 mmHg 90%
01:00 +26°C° 0 mm 2 m/s 752 mmHg 91%
02:00 +26°C° 0 mm 2 m/s 751 mmHg 91%
03:00 +26°C° 0 mm 2 m/s 751 mmHg 92%
04:00 +26°C° 0 mm 2 m/s 751 mmHg 92%
05:00 +26°C° 0 mm 2 m/s 752 mmHg 92%
06:00 +26°C° 0 mm 2 m/s 752 mmHg 91%
07:00 +28°C° 0 mm 2 m/s 752 mmHg 85%
08:00 +29°C° 0 mm 3 m/s 752 mmHg 78%
09:00 +30°C° 0 mm 4 m/s 752 mmHg 72%
10:00 +32°C° 0.1 mm 4 m/s 752 mmHg 69%
11:00 +33°C° 0.1 mm 3 m/s 752 mmHg 65%
12:00 +34°C° 0.1 mm 3 m/s 751 mmHg 62%
13:00 +34°C° 0.7 mm 4 m/s 751 mmHg 65%
14:00 +33°C° 0.7 mm 4 m/s 750 mmHg 68%
15:00 +32°C° 0.7 mm 4 m/s 750 mmHg 72%
16:00 +30°C° 1.1 mm 4 m/s 750 mmHg 77%
17:00 +29°C° 1.1 mm 4 m/s 750 mmHg 82%
18:00 +28°C° 1.1 mm 4 m/s 751 mmHg 87%
19:00 +28°C° 0.9 mm 4 m/s 751 mmHg 88%
20:00 +27°C° 0.9 mm 4 m/s 751 mmHg 89%
21:00 +27°C° 0.9 mm 3 m/s 752 mmHg 90%
22:00 +27°C° 0.9 mm 3 m/s 752 mmHg 91%
23:00 +27°C° 0.9 mm 3 m/s 752 mmHg 92%

21 Juin, Lundi

Heure Température Précipitation Vent Pression Humidité
00:00 +26°C° 0.9 mm 3 m/s 751 mmHg 93%
01:00 +26°C° 0.3 mm 3 m/s 751 mmHg 93%
02:00 +26°C° 0.3 mm 2 m/s 751 mmHg 93%
03:00 +26°C° 0.3 mm 2 m/s 751 mmHg 93%
04:00 +26°C° 0.1 mm 2 m/s 751 mmHg 93%
05:00 +26°C° 0.1 mm 2 m/s 751 mmHg 93%
06:00 +26°C° 0.1 mm 2 m/s 752 mmHg 92%
07:00 +27°C° 0 mm 3 m/s 752 mmHg 87%
08:00 +29°C° 0 mm 3 m/s 752 mmHg 81%
09:00 +30°C° 0 mm 4 m/s 752 mmHg 75%
10:00 +32°C° 0.5 mm 4 m/s 752 mmHg 72%
11:00 +33°C° 0.5 mm 4 m/s 752 mmHg 68%
12:00 +34°C° 0.5 mm 4 m/s 751 mmHg 65%
13:00 +34°C° 0.6 mm 4 m/s 751 mmHg 63%
14:00 +34°C° 0.6 mm 3 m/s 750 mmHg 62%
15:00 +34°C° 0.6 mm 3 m/s 750 mmHg 60%
16:00 +33°C° 0.5 mm 3 m/s 750 mmHg 66%
17:00 +30°C° 0.5 mm 2 m/s 750 mmHg 72%
18:00 +29°C° 0.5 mm 2 m/s 750 mmHg 78%
19:00 +28°C° 0.5 mm 2 m/s 751 mmHg 81%
20:00 +28°C° 0.5 mm 2 m/s 751 mmHg 84%
21:00 +27°C° 0.5 mm 1 m/s 751 mmHg 87%
22:00 +27°C° 0.2 mm 1 m/s 751 mmHg 89%
23:00 +26°C° 0.2 mm 1 m/s 751 mmHg 90%

22 Juin, Mardi

Heure Température Précipitation Vent Pression Humidité
00:00 +26°C° 0.2 mm 1 m/s 751 mmHg 91%
01:00 +26°C° 0.3 mm 1 m/s 751 mmHg 91%
02:00 +26°C° 0.3 mm 1 m/s 751 mmHg 92%
03:00 +26°C° 0.3 mm 1 m/s 751 mmHg 93%
04:00 +26°C° 0.2 mm 1 m/s 751 mmHg 92%
05:00 +26°C° 0.2 mm 1 m/s 751 mmHg 92%
06:00 +26°C° 0.2 mm 1 m/s 751 mmHg 92%
07:00 +27°C° 0.8 mm 1 m/s 751 mmHg 86%
08:00 +29°C° 0.8 mm 2 m/s 752 mmHg 81%
09:00 +30°C° 0.8 mm 2 m/s 752 mmHg 76%
10:00 +30°C° 2 mm 2 m/s 752 mmHg 75%
11:00 +30°C° 2 mm 2 m/s 752 mmHg 75%
12:00 +31°C° 2 mm 2 m/s 752 mmHg 74%
13:00 +30°C° 2.3 mm 2 m/s 751 mmHg 75%
14:00 +30°C° 2.3 mm 2 m/s 751 mmHg 76%
15:00 +30°C° 2.3 mm 1 m/s 750 mmHg 78%
16:00 +29°C° 2.1 mm 1 m/s 750 mmHg 83%
17:00 +27°C° 2.1 mm 1 m/s 751 mmHg 88%
18:00 +26°C° 2.1 mm 2 m/s 751 mmHg 93%
19:00 +26°C° 0.6 mm 1 m/s 751 mmHg 92%
20:00 +26°C° 0.6 mm 1 m/s 752 mmHg 91%
21:00 +24°C° 0.6 mm 0 m/s 752 mmHg 90%
22:00 +26°C° 0.2 mm 1 m/s 752 mmHg 90%
23:00 +26°C° 0.2 mm 1 m/s 752 mmHg 90%
Voir plus

Nous avons besoin de votre consentement

Meteoprog et ses fournisseurs de services peuvent stocker et accéder à des données personnelles telles que des cookies, des identifiants d'appareils ou d'autres technologies similaires sur votre appareil et traiter ces données pour personnaliser le contenu et les publicités, ainsi que pour fournir des fonctionnalités de médias sociaux et analyser le trafic.

  • Stocker et/ou accéder à des informations sur votre appareil

    Des cookies, des identifiants d'appareils ou d'autres informations peuvent être stockés ou accessibles sur votre appareil aux fins indiquées ci-dessus.

  • Annonces et contenus personnalisés, mesure des annonces et des contenus, connaissance de l'audience et développement de produits

    Les annonces et le contenu peuvent être personnalisés en fonction d'un profil. D'autres données peuvent être ajoutées pour mieux personnaliser les annonces et le contenu. Les performances des publicités et du contenu peuvent être mesurées. Il est possible d'obtenir des informations sur le public qui a vu les publicités et le contenu. Ces données peuvent être utilisées pour développer ou améliorer l'expérience de l'utilisateur, les systèmes et les logiciels.

En cliquant sur "J'accepte", vous autorisez l'utilisation de cookies, des identifiants d'appareils, des balises web ou d'autres technologies similaires. Vos paramètres peuvent être modifiés dans le navigateur de votre appareil.

Dans certains cas, des intérêts légitimes peuvent être invoqués plutôt qu'un consentement. Vous pouvez en savoir plus à ce sujet dans notre Politique de confidentialité et de cookies.